Time,TemperatureF,DewpointF,PressureIn,WindDirection,WindDirectionDegrees,WindSpeedMPH,WindSpeedGustMPH,Humidity,HourlyPrecipIn,Conditions,Clouds,dailyrainin,SoftwareType,DateUTC
2013-09-01 00:00:00,74.2,67.3,29.73,WSW,257,0.0,0.0,79,0.00,,---,0.02,VWS V14.01,2013-09-01 05:00:00,
2013-09-01 00:01:00,73.0,67.2,29.73,WSW,257,0.0,0.0,82,0.00,,---,0.00,VWS V14.01,2013-09-01 05:01:00,
2013-09-01 00:06:00,73.0,67.2,29.73,WSW,257,0.0,0.0,82,0.00,,---,0.00,VWS V14.01,2013-09-01 05:06:00,
2013-09-01 00:11:00,73.0,67.2,29.73,WSW,257,0.0,0.0,82,0.00,,---,0.00,VWS V14.01,2013-09-01 05:11:00,
2013-09-01 00:16:00,72.8,67.0,29.73,WSW,257,0.0,0.0,82,0.00,,---,0.00,VWS V14.01,2013-09-01 05:16:00,
2013-09-01 00:21:00,72.8,67.3,29.73,WSW,257,0.0,0.0,83,0.00,,---,0.00,VWS V14.01,2013-09-01 05:21:00,
2013-09-01 00:26:00,72.7,67.2,29.73,WSW,257,0.0,0.0,83,0.00,,---,0.00,VWS V14.01,2013-09-01 05:26:00,
2013-09-01 00:30:00,72.7,67.2,29.73,WSW,257,0.0,0.0,83,0.00,,---,0.00,VWS V14.01,2013-09-01 05:30:00,
2013-09-01 00:36:00,72.5,67.1,29.73,WSW,257,0.0,0.0,83,0.00,,---,0.00,VWS V14.01,2013-09-01 05:36:00,
2013-09-01 00:41:00,72.3,67.2,29.73,WSW,257,0.0,0.0,84,0.00,,---,0.00,VWS V14.01,2013-09-01 05:41:00,
2013-09-01 00:46:00,72.3,67.2,29.73,WSW,257,0.0,0.0,84,0.00,,---,0.00,VWS V14.01,2013-09-01 05:46:00,
2013-09-01 00:51:00,72.5,67.4,29.73,WSW,257,0.0,0.0,84,0.00,,---,0.00,VWS V14.01,2013-09-01 05:51:00,
2013-09-01 00:56:00,72.5,67.4,29.73,WSW,257,0.0,0.0,84,0.00,,---,0.00,VWS V14.01,2013-09-01 05:56:00,
2013-09-01 01:00:00,73.0,67.2,29.73,WSW,257,0.0,0.0,82,0.00,,---,0.00,VWS V14.01,2013-09-01 06:00:00,
2013-09-01 01:01:00,72.3,67.2,29.73,WSW,257,0.0,0.0,84,0.00,,---,0.00,VWS V14.01,2013-09-01 06:01:00,
2013-09-01 01:06:00,72.3,67.5,29.73,WSW,257,0.0,0.0,85,0.00,,---,0.00,VWS V14.01,2013-09-01 06:06:00,
2013-09-01 01:11:00,72.3,67.5,29.73,WSW,257,0.0,0.0,85,0.00,,---,0.00,VWS V14.01,2013-09-01 06:11:00,
2013-09-01 01:16:00,72.5,67.7,29.73,WSW,257,0.0,0.0,85,0.00,,---,0.00,VWS V14.01,2013-09-01 06:16:00,
2013-09-01 01:21:00,72.7,68.3,29.73,WSW,257,0.0,0.0,86,0.00,,---,0.00,VWS V14.01,2013-09-01 06:21:00,
2013-09-01 01:26:00,72.8,68.4,29.73,WSW,257,0.0,0.0,86,0.00,,---,0.00,VWS V14.01,2013-09-01 06:26:00,
2013-09-01 01:30:00,72.7,67.2,29.73,WSW,257,0.0,0.0,83,0.00,,---,0.00,VWS V14.01,2013-09-01 06:30:00,
2013-09-01 01:31:00,72.8,68.4,29.73,WSW,257,0.0,0.0,86,0.00,,---,0.00,VWS V14.01,2013-09-01 06:31:00,
2013-09-01 01:36:00,72.8,68.4,29.73,WSW,257,0.0,0.0,86,0.00,,---,0.00,VWS V14.01,2013-09-01 06:36:00,
2013-09-01 01:41:00,72.7,68.3,29.73,WSW,257,0.0,0.0,86,0.00,,---,0.00,VWS V14.01,2013-09-01 06:41:00,
2013-09-01 01:46:00,72.5,68.1,29.72,WSW,257,0.0,0.0,86,0.00,,---,0.00,VWS V14.01,2013-09-01 06:46:00,
2013-09-01 01:51:00,72.3,67.9,29.72,WSW,257,0.0,0.0,86,0.00,,---,0.00,VWS V14.01,2013-09-01 06:51:00,
2013-09-01 01:56:00,72.3,67.9,29.72,WSW,257,0.0,0.0,86,0.00,,---,0.00,VWS V14.01,2013-09-01 06:56:00,
2013-09-01 02:00:00,72.3,67.2,29.73,WSW,257,0.0,0.0,84,0.00,,---,0.00,VWS V14.01,2013-09-01 07:00:00,
2013-09-01 02:01:00,72.1,67.7,29.72,WSW,257,0.0,0.0,86,0.00,,---,0.00,VWS V14.01,2013-09-01 07:01:00,
2013-09-01 02:06:00,72.3,67.9,29.72,WSW,257,0.0,0.0,86,0.00,,---,0.00,VWS V14.01,2013-09-01 07:06:00,
2013-09-01 02:11:00,72.5,68.1,29.72,WSW,257,0.0,0.0,86,0.00,,---,0.00,VWS V14.01,2013-09-01 07:11:00,
2013-09-01 02:16:00,72.7,68.6,29.72,WSW,257,0.0,0.0,87,0.00,,---,0.00,VWS V14.01,2013-09-01 07:16:00,
2013-09-01 02:21:00,72.8,68.4,29.72,WSW,257,0.0,0.0,86,0.00,,---,0.00,VWS V14.01,2013-09-01 07:21:00,
2013-09-01 02:26:00,72.8,68.7,29.72,WSW,257,0.0,0.0,87,0.00,,---,0.00,VWS V14.01,2013-09-01 07:26:00,
2013-09-01 02:30:00,72.8,68.4,29.73,WSW,257,0.0,0.0,86,0.00,,---,0.00,VWS V14.01,2013-09-01 07:30:00,
2013-09-01 02:31:00,72.8,68.4,29.72,WSW,257,0.0,0.0,86,0.00,,---,0.00,VWS V14.01,2013-09-01 07:31:00,
2013-09-01 02:36:00,72.8,68.4,29.72,WSW,257,0.0,0.0,86,0.00,,---,0.00,VWS V14.01,2013-09-01 07:36:00,
2013-09-01 02:41:00,72.8,68.7,29.72,WSW,257,0.0,0.0,87,0.00,,---,0.00,VWS V14.01,2013-09-01 07:41:00,
2013-09-01 02:46:00,72.8,68.7,29.72,WSW,257,0.0,0.0,87,0.00,,---,0.00,VWS V14.01,2013-09-01 07:46:00,
2013-09-01 02:51:00,72.8,68.7,29.72,WSW,257,0.0,0.0,87,0.00,,---,0.00,VWS V14.01,2013-09-01 07:51:00,
2013-09-01 02:56:00,72.8,68.7,29.72,WSW,257,0.0,0.0,87,0.00,,---,0.00,VWS V14.01,2013-09-01 07:56:00,
2013-09-01 03:00:00,72.1,67.7,29.72,WSW,257,0.0,0.0,86,0.00,,---,0.00,VWS V14.01,2013-09-01 08:00:00,
2013-09-01 03:01:00,72.8,68.7,29.72,WSW,257,0.0,0.0,87,0.00,,---,0.00,VWS V14.01,2013-09-01 08:01:00,
2013-09-01 03:06:00,72.8,68.7,29.72,WSW,257,0.0,0.0,87,0.00,,---,0.00,VWS V14.01,2013-09-01 08:06:00,
2013-09-01 03:11:00,72.8,68.7,29.72,WSW,257,0.0,0.0,87,0.00,,---,0.00,VWS V14.01,2013-09-01 08:11:00,
2013-09-01 03:16:00,73.2,69.1,29.72,South,186,0.0,0.0,87,0.00,,---,0.00,VWS V14.01,2013-09-01 08:16:00,
2013-09-01 03:21:00,73.7,69.6,29.72,South,186,0.0,0.0,87,0.00,,---,0.00,VWS V14.01,2013-09-01 08:21:00,
2013-09-01 03:26:00,74.0,69.9,29.72,South,186,0.0,0.0,87,0.00,,---,0.00,VWS V14.01,2013-09-01 08:26:00,
2013-09-01 03:30:00,72.8,68.4,29.72,WSW,257,0.0,0.0,86,0.00,,---,0.00,VWS V14.01,2013-09-01 08:30:00,
2013-09-01 03:31:00,74.2,70.1,29.72,South,186,0.0,0.0,87,0.00,,---,0.00,VWS V14.01,2013-09-01 08:31:00,
2013-09-01 03:36:00,74.4,69.9,29.72,South,186,0.0,0.0,86,0.00,,---,0.00,VWS V14.01,2013-09-01 08:36:00,
2013-09-01 03:41:00,74.6,70.1,29.72,South,186,0.0,0.0,86,0.00,,---,0.00,VWS V14.01,2013-09-01 08:41:00,
2013-09-01 03:46:00,74.6,70.1,29.72,South,186,0.0,0.0,86,0.00,,---,0.00,VWS V14.01,2013-09-01 08:46:00,
2013-09-01 03:51:00,74.6,70.1,29.72,South,186,0.0,0.0,86,0.00,,---,0.00,VWS V14.01,2013-09-01 08:51:00,
2013-09-01 03:56:00,74.4,69.9,29.72,South,186,0.0,0.0,86,0.00,,---,0.00,VWS V14.01,2013-09-01 08:56:00,
2013-09-01 04:00:00,72.8,68.7,29.72,WSW,257,0.0,0.0,87,0.00,,---,0.00,VWS V14.01,2013-09-01 09:00:00,
2013-09-01 04:01:00,74.2,69.8,29.72,South,186,0.0,0.0,86,0.00,,---,0.00,VWS V14.01,2013-09-01 09:01:00,
2013-09-01 04:06:00,74.2,69.8,29.72,SSE,158,0.0,0.0,86,0.00,,---,0.00,VWS V14.01,2013-09-01 09:06:00,
2013-09-01 04:11:00,74.4,69.9,29.72,SSE,158,0.0,0.0,86,0.00,,---,0.00,VWS V14.01,2013-09-01 09:11:00,
2013-09-01 04:16:00,74.4,69.9,29.72,SSE,158,0.0,0.0,86,0.00,,---,0.00,VWS V14.01,2013-09-01 09:16:00,
2013-09-01 04:21:00,74.4,69.9,29.72,SSE,158,0.0,0.0,86,0.00,,---,0.00,VWS V14.01,2013-09-01 09:21:00,
2013-09-01 04:26:00,74.4,69.9,29.72,SSE,158,0.0,0.0,86,0.00,,---,0.00,VWS V14.01,2013-09-01 09:26:00,
2013-09-01 04:30:00,74.2,70.1,29.72,South,186,0.0,0.0,87,0.00,,---,0.00,VWS V14.01,2013-09-01 09:30:00,
2013-09-01 04:31:00,74.2,69.8,29.71,SSE,158,0.0,0.0,86,0.00,,---,0.00,VWS V14.01,2013-09-01 09:31:00,
2013-09-01 04:36:00,74.2,69.8,29.71,SSE,158,0.0,0.0,86,0.00,,---,0.00,VWS V14.01,2013-09-01 09:36:00,
2013-09-01 04:41:00,74.2,69.8,29.71,SSE,158,0.0,0.0,86,0.00,,---,0.00,VWS V14.01,2013-09-01 09:41:00,
2013-09-01 04:46:00,74.2,70.1,29.69,SSE,158,0.0,0.0,87,0.00,,---,0.00,VWS V14.01,2013-09-01 09:46:00,
2013-09-01 04:51:00,74.2,70.1,29.69,SSE,158,0.0,0.0,87,0.00,,---,0.00,VWS V14.01,2013-09-01 09:51:00,
2013-09-01 04:56:00,74.0,69.9,29.69,SSE,158,0.0,0.0,87,0.00,,---,0.00,VWS V14.01,2013-09-01 09:56:00,
2013-09-01 05:00:00,74.0,69.9,29.70,SSE,158,0.0,0.0,87,0.00,,---,0.00,VWS V14.01,2013-09-01 10:00:00,
2013-09-01 05:05:00,74.0,69.9,29.70,SSE,158,0.0,0.0,87,0.00,,---,0.00,VWS V14.01,2013-09-01 10:05:00,
2013-09-01 05:11:00,74.0,69.9,29.70,SE,144,0.0,0.0,87,0.00,,---,0.00,VWS V14.01,2013-09-01 10:11:00,
2013-09-01 05:16:00,74.2,70.1,29.70,SE,146,0.0,0.0,87,0.00,,---,0.00,VWS V14.01,2013-09-01 10:16:00,
2013-09-01 05:21:00,74.2,70.1,29.70,SSE,155,0.0,0.0,87,0.00,,---,0.00,VWS V14.01,2013-09-01 10:21:00,
2013-09-01 05:26:00,74.4,70.6,29.70,SE,142,0.0,0.0,88,0.00,,---,0.00,VWS V14.01,2013-09-01 10:26:00,
2013-09-01 05:30:00,74.2,69.8,29.71,SSE,158,0.0,0.0,86,0.00,,---,0.00,VWS V14.01,2013-09-01 10:30:00,
2013-09-01 05:31:00,74.4,70.6,29.70,SSE,149,0.0,0.0,88,0.00,,---,0.00,VWS V14.01,2013-09-01 10:31:00,
2013-09-01 05:35:00,74.4,70.6,29.70,SSE,149,0.0,0.0,88,0.00,,---,0.00,VWS V14.01,2013-09-01 10:35:00,
2013-09-01 05:40:00,74.6,70.8,29.70,SSE,147,0.0,0.0,88,0.00,,---,0.00,VWS V14.01,2013-09-01 10:40:00,
2013-09-01 05:45:00,74.7,70.9,29.70,SE,144,0.0,0.0,88,0.00,,---,0.00,VWS V14.01,2013-09-01 10:45:00,
2013-09-01 05:50:00,74.7,71.2,29.70,SE,144,0.0,0.0,89,0.00,,---,0.00,VWS V14.01,2013-09-01 10:50:00,
2013-09-01 05:55:00,74.9,71.4,29.70,SE,144,0.0,0.0,89,0.00,,---,0.00,VWS V14.01,2013-09-01 10:55:00,
2013-09-01 06:00:00,74.9,71.4,29.71,SE,144,0.0,0.0,89,0.00,,---,0.00,VWS V14.01,2013-09-01 11:00:00,
2013-09-01 06:05:00,75.1,71.6,29.71,SE,144,0.0,0.0,89,0.00,,---,0.00,VWS V14.01,2013-09-01 11:05:00,
2013-09-01 06:10:00,75.1,71.6,29.71,SE,144,0.0,0.0,89,0.00,,---,0.00,VWS V14.01,2013-09-01 11:10:00,
2013-09-01 06:15:00,75.1,71.6,29.73,SE,144,0.0,0.0,89,0.00,,---,0.00,VWS V14.01,2013-09-01 11:15:00,
2013-09-01 06:20:00,75.1,71.6,29.73,SE,144,0.0,0.0,89,0.00,,---,0.00,VWS V14.01,2013-09-01 11:20:00,
2013-09-01 06:25:00,75.1,72.0,29.73,SE,144,0.0,0.0,90,0.00,,---,0.00,VWS V14.01,2013-09-01 11:25:00,
2013-09-01 06:30:00,75.1,72.0,29.74,SE,144,0.0,0.0,90,0.00,,---,0.00,VWS V14.01,2013-09-01 11:30:00,
2013-09-01 06:35:00,75.1,72.0,29.74,SE,144,0.0,0.0,90,0.00,,---,0.00,VWS V14.01,2013-09-01 11:35:00,
2013-09-01 06:40:00,75.1,72.0,29.74,SE,144,0.0,0.0,90,0.00,,---,0.00,VWS V14.01,2013-09-01 11:40:00,
2013-09-01 06:45:00,75.3,72.2,29.73,SE,143,0.0,0.0,90,0.00,,---,0.00,VWS V14.01,2013-09-01 11:45:00,
2013-09-01 06:50:00,75.4,72.3,29.73,SE,142,0.0,0.0,90,0.00,,---,0.00,VWS V14.01,2013-09-01 11:50:00,
2013-09-01 06:55:00,75.4,72.3,29.73,SE,142,0.0,0.0,90,0.00,,---,0.00,VWS V14.01,2013-09-01 11:55:00,
2013-09-01 07:00:00,75.4,72.3,29.73,SE,142,0.0,0.0,90,0.00,,---,0.00,VWS V14.01,2013-09-01 12:00:00,
2013-09-01 07:05:00,75.4,72.3,29.73,SE,142,0.0,0.0,90,0.01,,---,0.01,VWS V14.01,2013-09-01 12:05:00,
2013-09-01 07:10:00,75.4,72.6,29.73,NNW,338,3.0,6.0,91,0.01,,---,0.01,VWS V14.01,2013-09-01 12:10:00,
2013-09-01 07:15:00,75.6,72.5,29.83,NW,325,14.0,18.0,90,0.02,,---,0.02,VWS V14.01,2013-09-01 12:15:00,
2013-09-01 07:20:00,73.9,70.5,29.83,West,269,4.0,38.0,89,0.20,,---,0.20,VWS V14.01,2013-09-01 12:20:00,
2013-09-01 07:25:00,72.0,68.6,29.83,NNW,340,14.0,38.0,89,0.52,,---,0.52,VWS V14.01,2013-09-01 12:25:00,
2013-09-01 07:30:00,70.9,67.8,29.86,NNW,342,17.0,38.0,90,0.80,,---,0.80,VWS V14.01,2013-09-01 12:30:00,
2013-09-01 07:35:00,70.1,67.4,29.86,NNW,335,14.0,27.0,91,1.06,,---,1.06,VWS V14.01,2013-09-01 12:35:00,
2013-09-01 07:40:00,69.6,67.2,29.86,North,350,6.0,27.0,92,1.21,,---,1.21,VWS V14.01,2013-09-01 12:40:00,
2013-09-01 07:45:00,69.4,67.0,29.83,North,355,17.0,27.0,92,1.30,,---,1.30,VWS V14.01,2013-09-01 12:45:00,
2013-09-01 07:50:00,69.4,67.0,29.83,North,5,11.0,27.0,92,1.34,,---,1.34,VWS V14.01,2013-09-01 12:50:00,
2013-09-01 07:55:00,69.3,66.9,29.83,North,360,8.0,27.0,92,1.35,,---,1.35,VWS V14.01,2013-09-01 12:55:00,
2013-09-01 08:00:00,69.3,66.9,29.83,NNW,331,8.0,27.0,92,1.36,,---,1.36,VWS V14.01,2013-09-01 13:00:00,
2013-09-01 08:05:00,69.1,67.0,29.83,North,5,8.0,18.0,93,1.36,,---,1.36,VWS V14.01,2013-09-01 13:05:00,
2013-09-01 08:10:00,68.9,66.8,29.83,North,360,12.0,18.0,93,1.37,,---,1.37,VWS V14.01,2013-09-01 13:10:00,
2013-09-01 08:15:00,68.9,66.8,29.82,North,5,6.0,18.0,93,1.37,,---,1.37,VWS V14.01,2013-09-01 13:15:00,
2013-09-01 08:20:00,68.8,66.7,29.82,North,360,7.0,18.0,93,1.37,,---,1.37,VWS V14.01,2013-09-01 13:20:00,
2013-09-01 08:25:00,68.9,66.8,29.82,NNE,26,6.0,18.0,93,1.37,,---,1.37,VWS V14.01,2013-09-01 13:25:00,
2013-09-01 08:30:00,68.9,66.8,29.81,NE,47,2.0,18.0,93,1.38,,---,1.38,VWS V14.01,2013-09-01 13:30:00,
2013-09-01 08:35:00,68.9,66.8,29.81,NNE,20,4.0,8.0,93,0.56,,---,1.38,VWS V14.01,2013-09-01 13:35:00,
2013-09-01 08:40:00,68.9,66.8,29.81,NE,54,4.0,9.0,93,0.57,,---,1.39,VWS V14.01,2013-09-01 13:40:00,
2013-09-01 08:45:00,68.8,66.7,29.80,NNE,17,5.0,9.0,93,0.58,,---,1.40,VWS V14.01,2013-09-01 13:45:00,
2013-09-01 08:50:00,68.8,66.7,29.80,North,360,4.0,9.0,93,0.58,,---,1.40,VWS V14.01,2013-09-01 13:50:00,
2013-09-01 08:55:00,68.6,66.5,29.80,NNE,26,1.0,9.0,93,0.58,,---,1.40,VWS V14.01,2013-09-01 13:55:00,
2013-09-01 09:00:00,68.6,66.5,29.81,NNE,22,2.0,9.0,93,0.58,,---,1.40,VWS V14.01,2013-09-01 14:00:00,
2013-09-01 09:05:00,68.6,66.5,29.81,NE,40,3.0,4.0,93,0.05,,---,1.41,VWS V14.01,2013-09-01 14:05:00,
2013-09-01 09:10:00,68.6,66.5,29.81,East,97,1.0,6.0,93,0.05,,---,1.41,VWS V14.01,2013-09-01 14:10:00,
2013-09-01 09:15:00,68.6,66.5,29.80,East,85,1.0,6.0,93,0.06,,---,1.42,VWS V14.01,2013-09-01 14:15:00,
2013-09-01 09:20:00,68.6,66.5,29.80,East,99,3.0,7.0,93,0.07,,---,1.43,VWS V14.01,2013-09-01 14:20:00,
2013-09-01 09:25:00,68.6,66.8,29.80,East,82,3.0,7.0,94,0.07,,---,1.43,VWS V14.01,2013-09-01 14:25:00,
2013-09-01 09:30:00,68.8,67.0,29.80,SE,131,2.0,7.0,94,0.07,,---,1.43,VWS V14.01,2013-09-01 14:30:00,
2013-09-01 09:35:00,68.8,67.0,29.80,SSE,147,1.0,4.0,94,0.05,,---,1.43,VWS V14.01,2013-09-01 14:35:00,
2013-09-01 09:40:00,68.9,67.1,29.80,ESE,107,3.0,9.0,94,0.05,,---,1.43,VWS V14.01,2013-09-01 14:40:00,
2013-09-01 09:45:00,68.9,67.1,29.80,East,80,2.0,9.0,94,0.05,,---,1.43,VWS V14.01,2013-09-01 14:45:00,
2013-09-01 09:50:00,69.1,67.3,29.80,ESE,109,3.0,9.0,94,0.05,,---,1.43,VWS V14.01,2013-09-01 14:50:00,
2013-09-01 09:55:00,69.1,67.6,29.80,East,99,0.0,9.0,95,0.06,,---,1.44,VWS V14.01,2013-09-01 14:55:00,
2013-09-01 10:00:00,69.1,67.6,29.80,ESE,103,2.0,9.0,95,0.06,,---,1.44,VWS V14.01,2013-09-01 15:00:00,
2013-09-01 10:05:00,69.3,67.8,29.80,ESE,109,8.0,8.0,95,0.04,,---,1.44,VWS V14.01,2013-09-01 15:05:00,
2013-09-01 10:10:00,69.4,67.9,29.80,ESE,121,4.0,8.0,95,0.04,,---,1.44,VWS V14.01,2013-09-01 15:10:00,
2013-09-01 10:15:00,69.8,68.3,29.78,East,92,1.0,8.0,95,0.04,,---,1.44,VWS V14.01,2013-09-01 15:15:00,
2013-09-01 10:20:00,69.9,68.4,29.78,SE,141,2.0,8.0,95,0.04,,---,1.44,VWS V14.01,2013-09-01 15:20:00,
2013-09-01 10:25:00,70.3,68.8,29.78,SSE,151,0.0,8.0,95,0.04,,---,1.44,VWS V14.01,2013-09-01 15:25:00,
2013-09-01 10:30:00,70.8,69.3,29.77,ESE,106,0.0,8.0,95,0.04,,---,1.44,VWS V14.01,2013-09-01 15:30:00,
2013-09-01 10:35:00,71.1,69.6,29.77,ENE,78,2.0,7.0,95,0.01,,---,1.44,VWS V14.01,2013-09-01 15:35:00,
2013-09-01 10:40:00,71.6,70.1,29.77,East,92,0.0,7.0,95,0.01,,---,1.44,VWS V14.01,2013-09-01 15:40:00,
2013-09-01 10:45:00,72.1,70.6,29.77,ESE,115,1.0,7.0,95,0.01,,---,1.44,VWS V14.01,2013-09-01 15:45:00,
2013-09-01 10:50:00,72.5,71.0,29.77,ESE,102,0.0,7.0,95,0.01,,---,1.44,VWS V14.01,2013-09-01 15:50:00,
2013-09-01 10:55:00,73.2,71.7,29.77,SE,127,0.0,7.0,95,0.01,,---,1.44,VWS V14.01,2013-09-01 15:55:00,
2013-09-01 11:00:00,73.9,72.4,29.77,East,91,2.0,7.0,95,0.01,,---,1.44,VWS V14.01,2013-09-01 16:00:00,
2013-09-01 11:05:00,74.4,72.6,29.77,East,92,3.0,4.0,94,0.00,,---,1.44,VWS V14.01,2013-09-01 16:05:00,
2013-09-01 11:10:00,74.9,73.1,29.77,SE,128,1.0,4.0,94,0.00,,---,1.44,VWS V14.01,2013-09-01 16:10:00,
2013-09-01 11:15:00,75.3,73.1,29.76,SSE,153,0.0,4.0,93,0.00,,---,1.44,VWS V14.01,2013-09-01 16:15:00,
2013-09-01 11:20:00,75.6,73.4,29.76,SE,143,0.0,4.0,93,0.00,,---,1.44,VWS V14.01,2013-09-01 16:20:00,
2013-09-01 11:25:00,75.8,73.3,29.76,East,96,1.0,5.0,92,0.00,,---,1.44,VWS V14.01,2013-09-01 16:25:00,
2013-09-01 11:30:00,75.6,73.1,29.76,SE,136,1.0,5.0,92,0.00,,---,1.44,VWS V14.01,2013-09-01 16:30:00,
2013-09-01 11:35:00,75.6,72.8,29.76,ESE,117,0.0,3.0,91,0.00,,---,1.44,VWS V14.01,2013-09-01 16:35:00,
2013-09-01 11:40:00,75.8,73.0,29.76,ESE,117,0.0,3.0,91,0.00,,---,1.44,VWS V14.01,2013-09-01 16:40:00,
2013-09-01 11:45:00,76.5,73.7,29.76,SE,140,0.0,3.0,91,0.00,,---,1.44,VWS V14.01,2013-09-01 16:45:00,
2013-09-01 11:50:00,77.4,74.6,29.76,SE,142,0.0,3.0,91,0.00,,---,1.44,VWS V14.01,2013-09-01 16:50:00,
2013-09-01 11:55:00,77.6,74.4,29.76,West,260,1.0,3.0,90,0.00,,---,1.44,VWS V14.01,2013-09-01 16:55:00,
2013-09-01 12:00:00,77.7,74.2,29.75,West,270,1.0,3.0,89,0.00,,---,1.44,VWS V14.01,2013-09-01 17:00:00,
2013-09-01 12:05:00,78.3,74.8,29.75,WSW,256,2.0,4.0,89,0.00,,---,1.44,VWS V14.01,2013-09-01 17:05:00,
2013-09-01 12:10:00,78.8,74.9,29.75,West,265,2.0,4.0,88,0.00,,---,1.44,VWS V14.01,2013-09-01 17:10:00,
2013-09-01 12:15:00,79.4,75.2,29.76,West,269,0.0,6.0,87,0.00,,---,1.44,VWS V14.01,2013-09-01 17:15:00,
2013-09-01 12:20:00,79.9,75.3,29.76,WSW,255,2.0,6.0,86,0.00,,---,1.44,VWS V14.01,2013-09-01 17:20:00,
2013-09-01 12:25:00,80.5,75.6,29.76,SW,233,3.0,6.0,85,0.00,,---,1.44,VWS V14.01,2013-09-01 17:25:00,
2013-09-01 12:30:00,81.1,75.8,29.77,West,278,0.0,6.0,84,0.00,,---,1.44,VWS V14.01,2013-09-01 17:30:00,
2013-09-01 12:35:00,81.8,76.1,29.77,WSW,257,2.0,5.0,83,0.00,,---,1.44,VWS V14.01,2013-09-01 17:35:00,
2013-09-01 12:40:00,82.2,76.2,29.77,WSW,246,3.0,5.0,82,0.00,,---,1.44,VWS V14.01,2013-09-01 17:40:00,
2013-09-01 12:45:00,82.4,75.6,29.77,WSW,254,2.0,6.0,80,0.00,,---,1.44,VWS V14.01,2013-09-01 17:45:00,
2013-09-01 12:50:00,82.6,75.4,29.77,SW,223,0.0,6.0,79,0.00,,---,1.44,VWS V14.01,2013-09-01 17:50:00,
2013-09-01 12:55:00,83.2,75.6,29.77,WSW,255,0.0,6.0,78,0.00,,---,1.44,VWS V14.01,2013-09-01 17:55:00,
2013-09-01 13:00:00,83.4,75.4,29.77,NW,313,0.0,6.0,77,0.00,,---,1.44,VWS V14.01,2013-09-01 18:00:00,
2013-09-01 13:05:00,83.8,75.4,29.77,NW,320,1.0,2.0,76,0.00,,---,1.44,VWS V14.01,2013-09-01 18:05:00,
2013-09-01 13:10:00,84.0,75.2,29.77,WSW,245,0.0,5.0,75,0.00,,---,1.44,VWS V14.01,2013-09-01 18:10:00,
2013-09-01 13:15:00,84.1,74.9,29.77,NW,323,0.0,5.0,74,0.00,,---,1.44,VWS V14.01,2013-09-01 18:15:00,
2013-09-01 13:20:00,84.3,75.1,29.77,NW,312,0.0,6.0,74,0.00,,---,1.44,VWS V14.01,2013-09-01 18:20:00,
2013-09-01 13:25:00,84.5,75.3,29.77,North,360,1.0,6.0,74,0.00,,---,1.44,VWS V14.01,2013-09-01 18:25:00,
2013-09-01 13:30:00,84.5,75.3,29.78,NNW,339,4.0,9.0,74,0.00,,---,1.44,VWS V14.01,2013-09-01 18:30:00,
2013-09-01 13:35:00,84.5,75.3,29.78,NNW,342,4.0,8.0,74,0.00,,---,1.44,VWS V14.01,2013-09-01 18:35:00,
2013-09-01 13:40:00,84.5,75.3,29.78,NNW,345,3.0,8.0,74,0.00,,---,1.44,VWS V14.01,2013-09-01 18:40:00,
2013-09-01 13:45:00,84.3,75.1,29.78,NW,314,1.0,10.0,74,0.00,,---,1.44,VWS V14.01,2013-09-01 18:45:00,
2013-09-01 13:50:00,84.5,75.3,29.78,NNW,344,4.0,10.0,74,0.00,,---,1.44,VWS V14.01,2013-09-01 18:50:00,
2013-09-01 13:55:00,84.3,75.1,29.78,NNW,341,6.0,10.0,74,0.00,,---,1.44,VWS V14.01,2013-09-01 18:55:00,
2013-09-01 14:00:00,84.0,74.4,29.79,SSW,196,3.0,10.0,73,0.00,,---,1.44,VWS V14.01,2013-09-01 19:00:00,
2013-09-01 14:05:00,84.0,74.0,29.79,SW,229,0.0,5.0,72,0.00,,---,1.44,VWS V14.01,2013-09-01 19:05:00,
2013-09-01 14:10:00,84.5,74.5,29.79,NNW,340,2.0,5.0,72,0.00,,---,1.44,VWS V14.01,2013-09-01 19:10:00,
2013-09-01 14:15:00,84.9,74.9,29.79,NW,326,0.0,6.0,72,0.00,,---,1.44,VWS V14.01,2013-09-01 19:15:00,
2013-09-01 14:20:00,85.3,75.2,29.79,NW,316,2.0,6.0,72,0.00,,---,1.44,VWS V14.01,2013-09-01 19:20:00,
2013-09-01 14:25:00,85.1,74.6,29.79,NW,321,3.0,7.0,71,0.00,,---,1.44,VWS V14.01,2013-09-01 19:25:00,
2013-09-01 14:30:00,84.5,73.7,29.80,NE,40,2.0,7.0,70,0.00,,---,1.44,VWS V14.01,2013-09-01 19:30:00,
2013-09-01 14:35:00,84.5,74.1,29.80,North,355,1.0,7.0,71,0.00,,---,1.44,VWS V14.01,2013-09-01 19:35:00,
2013-09-01 14:40:00,84.7,74.3,29.80,NNW,336,6.0,9.0,71,0.00,,---,1.44,VWS V14.01,2013-09-01 19:40:00,
2013-09-01 14:45:00,84.1,73.7,29.79,North,360,3.0,9.0,71,0.00,,---,1.44,VWS V14.01,2013-09-01 19:45:00,
2013-09-01 14:50:00,84.3,74.3,29.79,NW,325,3.0,9.0,72,0.00,,---,1.44,VWS V14.01,2013-09-01 19:50:00,
2013-09-01 14:55:00,84.7,74.3,29.79,NNW,346,4.0,10.0,71,0.00,,---,1.44,VWS V14.01,2013-09-01 19:55:00,
2013-09-01 15:00:00,84.9,74.4,29.79,NNE,32,4.0,10.0,71,0.00,,---,1.44,VWS V14.01,2013-09-01 20:00:00,
2013-09-01 15:05:00,84.7,73.8,29.79,North,5,4.0,10.0,70,0.00,,---,1.44,VWS V14.01,2013-09-01 20:05:00,
2013-09-01 15:10:00,84.9,74.4,29.79,NNW,340,8.0,10.0,71,0.00,,---,1.44,VWS V14.01,2013-09-01 20:10:00,
2013-09-01 15:15:00,85.1,73.8,29.79,WNW,289,2.0,10.0,69,0.00,,---,1.44,VWS V14.01,2013-09-01 20:15:00,
2013-09-01 15:20:00,85.3,73.6,29.79,North,360,3.0,10.0,68,0.00,,---,1.44,VWS V14.01,2013-09-01 20:20:00,
2013-09-01 15:25:00,85.5,73.7,29.79,NNW,334,6.0,10.0,68,0.00,,---,1.44,VWS V14.01,2013-09-01 20:25:00,
2013-09-01 15:30:00,84.5,72.8,29.80,North,349,4.0,10.0,68,0.00,,---,1.44,VWS V14.01,2013-09-01 20:30:00,
2013-09-01 15:35:00,83.8,73.0,29.80,NNE,12,6.0,9.0,70,0.00,,---,1.44,VWS V14.01,2013-09-01 20:35:00,
2013-09-01 15:40:00,83.4,73.0,29.80,NNW,339,7.0,11.0,71,0.00,,---,1.44,VWS V14.01,2013-09-01 20:40:00,
2013-09-01 15:45:00,83.4,73.0,29.80,NNW,332,7.0,11.0,71,0.00,,---,1.44,VWS V14.01,2013-09-01 20:45:00,
2013-09-01 15:50:00,83.2,72.8,29.80,North,355,5.0,13.0,71,0.00,,---,1.44,VWS V14.01,2013-09-01 20:50:00,
2013-09-01 15:55:00,83.0,72.6,29.80,NNE,25,3.0,13.0,71,0.00,,---,1.44,VWS V14.01,2013-09-01 20:55:00,
2013-09-01 16:00:00,82.6,71.8,29.80,North,360,5.0,13.0,70,0.00,,---,1.44,VWS V14.01,2013-09-01 21:00:00,
2013-09-01 16:05:00,82.2,71.9,29.80,North,360,7.0,11.0,71,0.00,,---,1.44,VWS V14.01,2013-09-01 21:05:00,
2013-09-01 16:10:00,82.6,72.2,29.80,NNE,32,5.0,11.0,71,0.00,,---,1.44,VWS V14.01,2013-09-01 21:10:00,
2013-09-01 16:15:00,83.0,72.2,29.80,NW,314,2.0,11.0,70,0.00,,---,1.44,VWS V14.01,2013-09-01 21:15:00,
2013-09-01 16:20:00,83.2,72.0,29.80,NNE,17,4.0,14.0,69,0.00,,---,1.44,VWS V14.01,2013-09-01 21:20:00,
2013-09-01 16:25:00,83.2,71.6,29.80,NNW,344,6.0,14.0,68,0.00,,---,1.44,VWS V14.01,2013-09-01 21:25:00,
2013-09-01 16:30:00,82.8,71.2,29.80,NE,34,5.0,14.0,68,0.00,,---,1.44,VWS V14.01,2013-09-01 21:30:00,
2013-09-01 16:35:00,82.8,71.2,29.80,North,5,6.0,10.0,68,0.00,,---,1.44,VWS V14.01,2013-09-01 21:35:00,
2013-09-01 16:40:00,83.0,71.8,29.80,NNW,345,3.0,13.0,69,0.00,,---,1.44,VWS V14.01,2013-09-01 21:40:00,
2013-09-01 16:45:00,83.0,71.8,29.81,NNW,347,7.0,13.0,69,0.00,,---,1.44,VWS V14.01,2013-09-01 21:45:00,
2013-09-01 16:50:00,83.2,72.0,29.81,NNW,348,4.0,13.0,69,0.00,,---,1.44,VWS V14.01,2013-09-01 21:50:00,
2013-09-01 16:55:00,83.2,72.0,29.81,North,360,5.0,13.0,69,0.00,,---,1.44,VWS V14.01,2013-09-01 21:55:00,
2013-09-01 17:00:00,83.0,71.4,29.81,North,360,5.0,13.0,68,0.00,,---,1.44,VWS V14.01,2013-09-01 22:00:00,
2013-09-01 17:05:00,82.6,71.4,29.81,North,355,7.0,10.0,69,0.00,,---,1.44,VWS V14.01,2013-09-01 22:05:00,
2013-09-01 17:10:00,82.8,72.4,29.81,NNW,338,5.0,10.0,71,0.00,,---,1.44,VWS V14.01,2013-09-01 22:10:00,
2013-09-01 17:15:00,82.2,70.6,29.81,NE,38,5.0,11.0,68,0.00,,---,1.44,VWS V14.01,2013-09-01 22:15:00,
2013-09-01 17:20:00,82.0,70.4,29.81,North,351,6.0,11.0,68,0.00,,---,1.44,VWS V14.01,2013-09-01 22:20:00,
2013-09-01 17:25:00,82.0,70.4,29.81,North,355,9.0,14.0,68,0.00,,---,1.44,VWS V14.01,2013-09-01 22:25:00,
2013-09-01 17:30:00,82.0,70.4,29.81,North,355,11.0,14.0,68,0.00,,---,1.44,VWS V14.01,2013-09-01 22:30:00,
2013-09-01 17:35:00,82.0,70.4,29.81,NNW,336,7.0,11.0,68,0.00,,---,1.44,VWS V14.01,2013-09-01 22:35:00,
2013-09-01 17:40:00,82.2,71.0,29.81,North,5,7.0,11.0,69,0.00,,---,1.44,VWS V14.01,2013-09-01 22:40:00,
2013-09-01 17:45:00,82.2,70.6,29.81,NNW,347,5.0,13.0,68,0.00,,---,1.44,VWS V14.01,2013-09-01 22:45:00,
2013-09-01 17:50:00,82.0,70.8,29.81,North,355,6.0,14.0,69,0.00,,---,1.44,VWS V14.01,2013-09-01 22:50:00,
2013-09-01 17:55:00,81.8,70.2,29.81,NNW,342,6.0,14.0,68,0.00,,---,1.44,VWS V14.01,2013-09-01 22:55:00,
2013-09-01 18:00:00,81.8,70.2,29.81,North,5,4.0,14.0,68,0.00,,---,1.44,VWS V14.01,2013-09-01 23:00:00,
2013-09-01 18:05:00,81.6,70.0,29.81,NNE,13,7.0,9.0,68,0.00,,---,1.44,VWS V14.01,2013-09-01 23:05:00,
2013-09-01 18:10:00,81.6,69.6,29.81,North,355,9.0,10.0,67,0.00,,---,1.44,VWS V14.01,2013-09-01 23:10:00,
2013-09-01 18:15:00,81.2,69.2,29.81,NNW,331,8.0,11.0,67,0.00,,---,1.44,VWS V14.01,2013-09-01 23:15:00,
2013-09-01 18:20:00,81.1,68.7,29.81,NNW,342,8.0,15.0,66,0.00,,---,1.44,VWS V14.01,2013-09-01 23:20:00,
2013-09-01 18:25:00,80.9,68.0,29.81,North,360,5.0,15.0,65,0.00,,---,1.44,VWS V14.01,2013-09-01 23:25:00,
2013-09-01 18:30:00,80.7,67.4,29.82,North,360,7.0,15.0,64,0.00,,---,1.44,VWS V14.01,2013-09-01 23:30:00,
2013-09-01 18:35:00,80.7,67.4,29.82,North,5,8.0,11.0,64,0.00,,---,1.44,VWS V14.01,2013-09-01 23:35:00,
2013-09-01 18:40:00,80.7,67.4,29.82,North,360,7.0,11.0,64,0.00,,---,1.44,VWS V14.01,2013-09-01 23:40:00,
2013-09-01 18:45:00,80.5,66.8,29.82,NNW,343,8.0,12.0,63,0.00,,---,1.44,VWS V14.01,2013-09-01 23:45:00,
2013-09-01 18:50:00,80.3,66.6,29.82,NNE,26,7.0,14.0,63,0.00,,---,1.44,VWS V14.01,2013-09-01 23:50:00,
2013-09-01 18:55:00,80.1,66.4,29.82,North,5,2.0,14.0,63,0.00,,---,1.44,VWS V14.01,2013-09-01 23:55:00,
2013-09-01 19:00:00,79.9,65.7,29.82,NNW,340,8.0,14.0,62,0.00,,---,1.44,VWS V14.01,2013-09-02 00:00:00,
2013-09-01 19:05:00,79.9,65.7,29.82,North,5,7.0,9.0,62,0.00,,---,1.44,VWS V14.01,2013-09-02 00:05:00,
2013-09-01 19:10:00,79.8,65.6,29.82,NNE,27,7.0,9.0,62,0.00,,---,1.44,VWS V14.01,2013-09-02 00:10:00,
2013-09-01 19:15:00,79.6,65.4,29.82,North,360,5.0,9.0,62,0.00,,---,1.44,VWS V14.01,2013-09-02 00:15:00,
2013-09-01 19:20:00,79.4,65.3,29.82,North,5,5.0,12.0,62,0.00,,---,1.44,VWS V14.01,2013-09-02 00:20:00,
2013-09-01 19:25:00,79.2,65.1,29.82,North,11,4.0,12.0,62,0.00,,---,1.44,VWS V14.01,2013-09-02 00:25:00,
2013-09-01 19:30:00,78.8,64.7,29.83,North,355,6.0,12.0,62,0.00,,---,1.44,VWS V14.01,2013-09-02 00:30:00,
2013-09-01 19:35:00,78.6,64.5,29.83,NNW,343,2.0,9.0,62,0.00,,---,1.44,VWS V14.01,2013-09-02 00:35:00,
2013-09-01 19:40:00,78.5,64.4,29.83,North,355,3.0,9.0,62,0.00,,---,1.44,VWS V14.01,2013-09-02 00:40:00,
2013-09-01 19:45:00,78.1,64.5,29.83,NW,317,6.0,9.0,63,0.00,,---,1.44,VWS V14.01,2013-09-02 00:45:00,
2013-09-01 19:50:00,77.9,64.3,29.83,North,355,4.0,9.0,63,0.00,,---,1.44,VWS V14.01,2013-09-02 00:50:00,
2013-09-01 19:55:00,77.7,64.1,29.83,NNE,18,4.0,9.0,63,0.00,,---,1.44,VWS V14.01,2013-09-02 00:55:00,
2013-09-01 20:00:00,77.7,64.1,29.84,North,360,7.0,9.0,63,0.00,,---,1.44,VWS V14.01,2013-09-02 01:00:00,
2013-09-01 20:05:00,77.6,64.5,29.84,NNW,348,2.0,12.0,64,0.00,,---,1.44,VWS V14.01,2013-09-02 01:05:00,
2013-09-01 20:10:00,77.4,64.3,29.84,North,355,5.0,12.0,64,0.00,,---,1.44,VWS V14.01,2013-09-02 01:10:00,
2013-09-01 20:15:00,77.2,64.1,29.84,NNW,343,3.0,12.0,64,0.00,,---,1.44,VWS V14.01,2013-09-02 01:15:00,
2013-09-01 20:20:00,76.8,63.7,29.84,North,360,6.0,12.0,64,0.00,,---,1.44,VWS V14.01,2013-09-02 01:20:00,
2013-09-01 20:25:00,76.7,63.6,29.84,NNW,346,3.0,12.0,64,0.00,,---,1.44,VWS V14.01,2013-09-02 01:25:00,
2013-09-01 20:30:00,76.5,63.4,29.85,NNE,14,1.0,12.0,64,0.00,,---,1.44,VWS V14.01,2013-09-02 01:30:00,
2013-09-01 20:35:00,76.1,63.5,29.85,NNW,346,5.0,6.0,65,0.00,,---,1.44,VWS V14.01,2013-09-02 01:35:00,
2013-09-01 20:40:00,76.1,63.5,29.85,North,9,2.0,8.0,65,0.00,,---,1.44,VWS V14.01,2013-09-02 01:40:00,
2013-09-01 20:45:00,76.0,63.4,29.86,NNW,348,3.0,8.0,65,0.00,,---,1.44,VWS V14.01,2013-09-02 01:45:00,
2013-09-01 20:50:00,75.8,63.2,29.86,NNE,15,3.0,8.0,65,0.00,,---,1.44,VWS V14.01,2013-09-02 01:50:00,
2013-09-01 20:55:00,75.6,63.0,29.86,NNW,336,2.0,8.0,65,0.00,,---,1.44,VWS V14.01,2013-09-02 01:55:00,
2013-09-01 21:00:00,75.4,62.8,29.86,NNW,340,1.0,8.0,65,0.00,,---,1.44,VWS V14.01,2013-09-02 02:00:00,
2013-09-01 21:05:00,75.1,63.0,29.86,NNW,346,4.0,5.0,66,0.00,,---,1.44,VWS V14.01,2013-09-02 02:05:00,
2013-09-01 21:10:00,74.9,62.8,29.86,NNW,344,0.0,5.0,66,0.00,,---,1.44,VWS V14.01,2013-09-02 02:10:00,
2013-09-01 21:15:00,74.6,62.5,29.86,NNW,348,3.0,5.0,66,0.00,,---,1.44,VWS V14.01,2013-09-02 02:15:00,
2013-09-01 21:20:00,74.4,62.7,29.87,NNW,329,0.0,5.0,67,0.00,,---,1.44,VWS V14.01,2013-09-02 02:20:00,
2013-09-01 21:25:00,74.2,62.5,29.87,North,351,1.0,5.0,67,0.00,,---,1.44,VWS V14.01,2013-09-02 02:25:00,
2013-09-01 21:30:00,74.0,62.4,29.87,NNW,344,1.0,5.0,67,0.00,,---,1.44,VWS V14.01,2013-09-02 02:30:00,
2013-09-01 21:35:00,73.9,62.7,29.87,NNW,344,0.0,3.0,68,0.00,,---,1.44,VWS V14.01,2013-09-02 02:35:00,
2013-09-01 21:39:00,73.5,62.3,29.87,NNW,344,0.0,4.0,68,0.00,,---,1.44,VWS V14.01,2013-09-02 02:39:00,
2013-09-01 21:44:00,73.3,62.1,29.87,NNW,336,1.0,6.0,68,0.00,,---,1.44,VWS V14.01,2013-09-02 02:44:00,
2013-09-01 21:49:00,73.2,62.0,29.88,NNW,336,1.0,6.0,68,0.00,,---,1.44,VWS V14.01,2013-09-02 02:49:00,
2013-09-01 21:54:00,73.0,61.8,29.88,NNW,336,0.0,6.0,68,0.00,,---,1.44,VWS V14.01,2013-09-02 02:54:00,
2013-09-01 21:59:00,72.7,62.0,29.88,NNW,337,1.0,6.0,69,0.00,,---,1.44,VWS V14.01,2013-09-02 02:59:00,
2013-09-01 22:00:00,75.3,62.7,29.86,North,355,3.0,8.0,65,0.00,,---,1.44,VWS V14.01,2013-09-02 03:00:00,
2013-09-01 22:04:00,72.3,61.6,29.88,NNW,337,0.0,3.0,69,0.00,,---,1.44,VWS V14.01,2013-09-02 03:04:00,
2013-09-01 22:09:00,72.0,61.3,29.88,NNW,337,0.0,3.0,69,0.00,,---,1.44,VWS V14.01,2013-09-02 03:09:00,
2013-09-01 22:14:00,71.8,61.5,29.88,NNW,337,0.0,4.0,70,0.00,,---,1.44,VWS V14.01,2013-09-02 03:14:00,
2013-09-01 22:19:00,71.6,61.3,29.88,NNW,337,0.0,4.0,70,0.00,,---,1.44,VWS V14.01,2013-09-02 03:19:00,
2013-09-01 22:24:00,71.5,61.2,29.88,NNW,337,0.0,4.0,70,0.00,,---,1.44,VWS V14.01,2013-09-02 03:24:00,
2013-09-01 22:29:00,71.3,61.4,29.88,NNW,338,0.0,4.0,71,0.00,,---,1.44,VWS V14.01,2013-09-02 03:29:00,
2013-09-01 22:30:00,74.0,62.4,29.87,NNW,344,0.0,5.0,67,0.00,,---,1.44,VWS V14.01,2013-09-02 03:30:00,
2013-09-01 22:34:00,70.9,61.0,29.89,NNW,338,0.0,0.0,71,0.00,,---,1.44,VWS V14.01,2013-09-02 03:34:00,
2013-09-01 22:39:00,70.8,60.9,29.89,NNW,338,0.0,1.0,71,0.00,,---,1.44,VWS V14.01,2013-09-02 03:39:00,
2013-09-01 22:44:00,70.4,61.0,29.89,NNW,338,0.0,2.0,72,0.00,,---,1.44,VWS V14.01,2013-09-02 03:44:00,
2013-09-01 22:49:00,70.4,61.0,29.89,NNW,337,1.0,3.0,72,0.00,,---,1.44,VWS V14.01,2013-09-02 03:49:00,
2013-09-01 22:54:00,70.4,61.3,29.89,NNW,338,0.0,3.0,73,0.00,,---,1.44,VWS V14.01,2013-09-02 03:54:00,
2013-09-01 22:59:00,70.4,61.3,29.89,NNW,338,0.0,3.0,73,0.00,,---,1.44,VWS V14.01,2013-09-02 03:59:00,
2013-09-01 23:00:00,72.5,61.8,29.88,NNW,337,1.0,6.0,69,0.00,,---,1.44,VWS V14.01,2013-09-02 04:00:00,
2013-09-01 23:01:00,70.3,61.2,29.89,NNW,338,0.0,1.0,73,0.00,,---,1.44,VWS V14.01,2013-09-02 04:01:00,
2013-09-01 23:02:00,70.3,61.2,29.89,NNW,338,0.0,1.0,73,0.00,,---,1.44,VWS V14.01,2013-09-02 04:02:00,
2013-09-01 23:07:00,70.3,61.2,29.89,NNW,338,0.0,3.0,73,0.00,,---,1.44,VWS V14.01,2013-09-02 04:07:00,
2013-09-01 23:12:00,70.3,61.2,29.89,NNW,338,0.0,3.0,73,0.00,,---,1.44,VWS V14.01,2013-09-02 04:12:00,
2013-09-01 23:17:00,70.3,61.2,29.89,NNW,338,1.0,3.0,73,0.00,,---,1.44,VWS V14.01,2013-09-02 04:17:00,
2013-09-01 23:22:00,70.3,61.2,29.89,NNW,338,2.0,4.0,73,0.00,,---,1.44,VWS V14.01,2013-09-02 04:22:00,
2013-09-01 23:27:00,70.1,61.0,29.89,NNW,338,0.0,4.0,73,0.00,,---,1.44,VWS V14.01,2013-09-02 04:27:00,
2013-09-01 23:30:00,71.3,61.4,29.89,NNW,338,0.0,4.0,71,0.00,,---,1.44,VWS V14.01,2013-09-02 04:30:00,
2013-09-01 23:32:00,69.9,61.2,29.90,NNW,338,0.0,0.0,74,0.00,,---,1.44,VWS V14.01,2013-09-02 04:32:00,
2013-09-01 23:37:00,69.6,61.0,29.90,NNW,338,0.0,3.0,74,0.00,,---,1.44,VWS V14.01,2013-09-02 04:37:00,
2013-09-01 23:42:00,69.4,60.8,29.90,NNW,338,0.0,4.0,74,0.00,,---,1.44,VWS V14.01,2013-09-02 04:42:00,
2013-09-01 23:47:00,69.4,60.8,29.90,NNW,339,1.0,4.0,74,0.00,,---,1.44,VWS V14.01,2013-09-02 04:47:00,
2013-09-01 23:52:00,69.6,61.0,29.90,NNW,339,3.0,4.0,74,0.00,,---,1.44,VWS V14.01,2013-09-02 04:52:00,
2013-09-01 23:57:00,69.4,60.8,29.90,NNW,339,0.0,4.0,74,0.00,,---,1.44,VWS V14.01,2013-09-02 04:57:00,